Tracking 22780 objects as of 11-Apr-2021
HD Live streaming from Space Station
objects crossing your sky now

STARLINK-1349

Track STARLINK-1349 now!
10-day predictions
STARLINK-1349 is classified as:


NORAD ID: 45587
Int'l Code: 2020-025BJ
Perigee: 553.3 km
Apogee: 555.4 km
Inclination: 53.1 °
Period: 95.6 minutes
Semi major axis: 6925 km
RCS: Unknown
Launch date: April 22, 2020
Source: United States (US)
Launch site: AIR FORCE EASTERN TEST RANGE (AFETR)
aabbcc
Your satellite tracking list
Your tracking list is empty




NASA's NSSDC Master Catalog

Two Line Element Set (TLE):
1 45587U 20025BJ  21100.76105989  .00000617  00000-0  60300-4 0  9994
2 45587  53.0593 209.8632 0001563 121.5725 238.5416 15.06394847 55123
Source of the keplerian elements: AFSPC